Location: *
(49.7115°N, 15.0136°E)
Time: 04:11:59
(UTC+00:00)

USA 229 - Pass Details

Date: 27 February 2020
Orbit: 986 x 1226 km, 63.4° (Epoch: 26 March)

Event Time Altitude Azimuth Distance (km) Brightness Sun altitude
Rises 17:17:26 0° 235° (SW) 3,721 7.7 -7.1°
Reaches altitude 10° 17:20:01 10° 239° (WSW) 2,794 7.0 -7.5°
Maximum altitude 17:26:32 62° 320° (NW) 1,171 4.1 -8.6°
Drops below altitude 10° 17:33:27 10° 41° (NE) 2,960 5.6 -9.7°
Sets 17:36:16 0° 45° (NE) 3,957 6.2 -10.2°
